[Date Prev][Date Next][Thread Prev][Thread Next][Date Index][Thread Index]

[jamsat-news:1718] jas2info #27 7



========================   最新情報   ==============================

        Last updated  01Jun2002  12:10(JST)   #277

====================================================================
   
1)アマチュア通信衛星情報、FOシリーズの軌道要素、テレメトリ、QSOの
   状況等をまとめてみました.
   
 FO−29の2002年5月31日(金)の19:16(JST)のパスでは
JARLのホームページのとうりアナログ運用でした。 今日までの観測した
テレメトリーと最終の分析結果を報告しておきます。

AS28573C  31Jun2002
19:16-19:30(JST)
AOS   MEL  LOS  Elev
358  294   228   23.7
Freq. 435.803-.786MHz

                                                         61 7F 8D 8B 8C 84 
HI HI AE 07 88 55 00 D4 F7 48 09 4C 32 4F 6C 53 89 86 93 5C 8F 8D 8B 8C 84 
HI HI AE 07 88 55 00 D4 F7 48 09 4C 33 5A 73 4D 8B 88 94 80 8F 8D 8B 8C 84 
HI HI AE 07 88 55 00 D4 F7 48 09 4C 33 58 78 4B 8D 8A 97 61 8F 8D 8B 8C 84 
HI HI AE 07 88 55 00 D4 F7 48 09 4C 32 5E 7C 49 90 8D 9A 86 8F 8D 8B 8B 84 
HI HI AE 07 88 55 00 D4 F7 48 09 4C 30 63 7C 49 91 8D 9B 76 8F 8D 8B 8C 84 
HI HI AE 07 88 55 00 D4 F7 48 09 4C 2D 68 7B 4A 90 8D 9A 79 8F 8D 8B 8B 84 
HI HI AE 07 88 55 00 D4 F7 48 09 4C 2A 6A 78 4B 90 8C 99 6B 8F 8D 8B 8B 84 
HI HI AE 07 88 55 00 D4 F7 48 09 4C 29 6A 73 4E 8F 8C 99 8B 8F 8D 8B 8B 84 
HI HI AE 07 88 55 00 D4 F7 48 09 4C 28 68 6D 54 8E 8A 97 7D 8F 8D 8B 8B 84 
HI HI AE 07 88 55 00 D4 F7 48 09 4C 27 63 6B 52 8D 8A 95 81 8E 8D 8B 8B 84 
HI HI AE 07 88 55 00 D4 F7 48 09 4C 29 5D 6D 51 8D 8A 96 78 8E 8D 8B 8B 84 
HI HI AE O7 88 55 00 D4 F7 48 09 4C 2C 55 73 4F 8E 8A 97 71 8E 8D 8B 8B 84
Hi HI AE 07 88 55 00 D4 F7 48 09 4C 32 4C 77 4D 90 8C 99 77 8E 8D 8B 8B 84 
HI HI AE 07 88 55 00 D4 F7 48 09 4C 39 43 78 4B 90 8C 99 7E 8E 8D 8B 8A 84 
HI HI AE 07 88 55 00 D4 F7 48 09 4C 42 3B 78 4E 90 8C 9A 7D 8E 8D 8B 8A 84 
HI HI AE 07 88 55 00 D4 F7 48 09 4C 4B 35 75 4C 9O 8C 99 76 8E 8D 8B 8A 84 
HI HI AE 07 88 55 00 D4 F7 48 09 4C 57 30 73 4D 8F 8C 99 76 8E 8D 8B 8A 84 
HI HI AE 07 88 55 00 D4 F7 48 09 4C 61 2E 6D 51 8E 8C 97 78 8E 8D 8B 8B 84 


AS28559C  30May2002
18:27-18:40(JST)
AOS   MEL  LOS  Elev
 10   288  200  71.1
Freq. 435.804-.785MHz

HI HI AE 07 88 55 00 D4 00 00 09 00 96 A0 59 5B 87 85 91 70 8D 8E 8F 8D 85 
HI HI AE 07 88 55 00 D4 00 00 09 00 8E AC 5F 58 87 85 91 7E 8D 8E 8F 8D 85 
HI HI AE 07 88 55 00 D4 00 00 09 00 85 B5 62 56 88 85 91 78 8D 8D 8F 8D 85 
HI HI AE 07 88 55 00 D4 00 00 09 00 79 BB 68 53 88 85 92 60 8D 8D 8F 8D 85 
HI HI AE 07 88 55 00 D4 00 00 09 00 6D BE 71 4E 89 86 93 74 8D 8E 8F 8D 85 
HI HI AE 07 88 55 00 D4 00 00 09 00 62 BD 76 4B 8A 87 94 85 8D 8D 8F 8D 85 
HI HI AE 07 88 55 00 D4 00 00 09 00 77 B9 79 4A 8B 8A B5 86 8D 8D 8F 8D 85 
HI HI AE 07 88 55 00 D4 00 00 09 00 4D B3 79 4B 8D 8B 98 99 8D 8D 8F 8D 85 
HI HI AE 07 88 55 00 D4 00 00 09 00 46 AC 7A 4B 90 8D 9A 6A 8E 8D 8F 8D 85 
HI HI AE 07 88 55 00 D4 00 00 09 00 40 A4 78 4D 90 8D 9A 76 8D 8D 8F 8D 85 
HI HI AE 07 88 55 00 D4 00 00 09 00 4D 9E 76 4D 90 8D 9A 87 8D 8D 8F 8D 85 
HI HI AE 07 88 55 00 D4 00 00 09 00 3C 99 76 4D 90 8D 9A 75 8D 8D 8F 8D 85 
HI HI AE 07 88 55 00 D4 00 00 09 00 20 97 77 4B 90 8D 9A 89 8D 8D 8F 8D 65 
HI HI AE 07 88 55 00 D4 00 00 09 00 3E 96 77 4D 90 8D 9A 82 8D 8D 8F 8D 85 
HI HI AE 07 88 55 00 D4 00 00 09 00 41 98 74 4D 8F 8C 99 75 8D 8D 8F 8D 85 
HI HI AE 07 88 55 00 D4 00 00 09 00 43 9B 74 4D 8F 8C 99 8C 8D 8D 8F 8D 85 
HI HI AE 07 88 55 00 D4 00 00 09 00 46 9D 72 4E 90 8C 99 7A 8D 8D 8F 8D 85 

AS28558C  30May2002
16:50-16:52(JST)
AOS   MEL  LOS  Elev
 40    89  138  10.0
Freq. 435.790-.788MHz

HI HI AE 07 88 55 00 D4 00 00 09 00 5B 53 79 4B 91 8E 9B 89 8F 8C 8E 8F 85
HI HI AE 07 88 55 00 D4 00 00 09 00 5C 59 79 4B 92 8E 9B 84 8F 8C 8E 8F 85 
HI HI AE 07 88 55 00 D4 00 00 09 00 5E 60 79 4A 92 8E 9B 80 8E 8C 8E 8F 85

AS28545C  29May2002
17:45-17:50(JST)
AOS   MEL  LOS  Elev
 22    98  173  37.1
Freq. 435.757-.785MHz

HI HI AE 07 88 55 00 D4 18 B4 09 4E 45 40 76 4D 92 8D 9B 94 8D 89 8F 91 85 
HI HI AE 07 88 55 00 D4 18 B4 09 4E 56 35 71 4E 91 8D 9A 64 8D 88 8F 91 85 
HI HI AE 07 88 55 00 D4 18 B4 09 4E 69 32 6A 52 8F 8C 99 72 8D 88 8F 91 85 
HI HI AE 07 88 55 00 D4 18 B4 09 4E 7B 37 62 56 8E 8A 97 72 8D 88 8F 91 85 
HI HI AE 07 88 55 00 D4 18 B4 09 4E 89 42 5C 59 8C 89 95 7C 8D 88 8F 91 85 
HI HI AE 07 88 55 00 D4 18 B4 09 4E 93 51 56 
 
------------------------ FO-29の軌道要素 ------------------------------        
 
  ■ 軌道要素1:「jamsat−keps:1207」より         
          SB KEPS @ AMSAT  $ORB02143.N
          2Line Orbital Elements 02143.AMSAT

HR AMSAT ORBITAL ELEMENTS FOR AMATEUR SATELLITES IN NASA FORMAT
FROM WA5QGD FORT WORTH,TX May 23, 2002
SEND SUBSCRIBE/UNSUBSCRIBE TO majordomo@amsat.org ONLY
BID: ORB02143.N

 DECODE 2-LINE ELSETS WITH THE FOLLOWING KEY:
 1 AAAAAU 00  0  0 BBBBB.BBBBBBBB  .CCCCCCCC  00000-0  00000-0 0  DDDZ
 2 AAAAA EEE.EEEE FFF.FFFF GGGGGGG HHH.HHHH III.IIII JJ.JJJJJJJJKKKKKZ
 KEY: A-CATALOGNUM B-EPOCHTIME C-DECAY D-ELSETNUM E-INCLINATION F-RAAN
 G-ECCENTRICITY H-ARGPERIGEE I-MNANOM J-MNMOTION K-ORBITNUM Z-CHECKSUM

FO-29
1 24278U 96046B   02142.08385452  .00000034  00000-0  71296-4 0  4993
2 24278  98.5138 325.7039 0350301 202.9927 155.5200 13.52839835284460

 ■ 軌道要素2:「jamsat−keps:1206」より
        SB KEPS @ AMSAT  $ORB02143.O
        Orbital Elements  02143.OSCAR

HR AMSAT ORBITAL ELEMENTS FOR OSCAR SATELLITES
FROM WA5QGD FORT WORTH,TX May 23, 2002
SEND SUBSCRIBE/UNSUBSCRIBE TO majordomo@amsat.org ONLY
BID: ORB02143.O
TO ALL RADIO AMATEURS BT

Satellite: FO-29
Catalog number: 24278
Epoch time:      02142.08385452
Element set:     499
Inclination:       98.5138 deg
RA of node:       325.7039 deg
Eccentricity:    0.0350301
Arg of perigee:   202.9927 deg
Mean anomaly:     155.5200 deg
Mean motion:   13.52839835 rev/day
Decay rate:        3.4e-07 rev/day^2
Epoch rev:           28446
Checksum:              313

-------------------  FO-29(JAS-2)のテレメトリに関する情報  ---------------------- 
 
2)上記2002年5月28日(火)のテレメトリの最終行を分析しておきます.

AS28532C  28May2002
18:32-18:45(JST)
AOS   MEL  LOS  Elev
  9   287  202  66.0
Freq. 435.804-.785MHz

HI HI AE 07 88 55 00 D4 00 00 09 00 51 6E 59 5B 88 85 92 6B 8B 8F 8D 87 84 


テレメトリ   内 容         換算算値 単 位
3C	磁気センサーZ軸=	39705.9	[nT]
3D	磁気センサX軸	=	53921.6	[nT]
4A	太陽電池発生電流=	 872.6	[mA]
4B	B充放電電流	=	 -216.4	[mA]
4C	B端子電圧	=	   14.6	[V]
4D	B中間端子電圧	=	    6.4	[V]
5A	バス電圧	=	   14.3	[V]
5B	JTA送信電力	=	  597.4	[mW]
5C 	構体温度1	=	   27.9	[℃]
5D	構体温度2	=	   26.3	[℃]
6A	構体温度3	=	   27.1	[℃]
6B	構体温度4	=	   29.5	[℃]
6C	Bセル温度	=	   30.6	[℃]

 ========================== FO-29(ふじ3号)のテレメトリ分析、QSO情報等 =====================
   
 3)[jamsat-bb:

 =================================================================================================
 
 4)JARL のホームページに運用予定が記載されていましたのでご紹介します.
       ( http://www.jarl.or.jp/Japanese/3_Fuji/new/uy.htm )
       
        *** 運用予定について ***

   4月01日(月) 〜 6月30日(日)アナログ系運用 

  *なお,運用予定は都合により,変更することがありますので,あらかじめご了承願います。

 照会先 : lab@jarl.or.jp

 最新の情報はテレホンサービス(03−3942−1000)をお聞きください。  
 以後の運用につきましては平成14年7月上旬にお知らせいたします。        
     
-----------------------    FO−20(JAS-1b)道要素   -------------------------
  
  ■ 軌道要素1 :出典はFO-29「ふじ3号」に同じ.
  
FO-20
1 20480U 90013C   02143.55214299 -.00000026  00000-0  20882-4 0  3991
2 20480  99.0208 152.6767 0539642 258.0573  95.9557 12.83316412575757
 
  ■ 軌道要素2 :出典はFO−29「ふじ3号」に同じ.
               
Satellite: FO-20
Catalog number: 20480
Epoch time:      02143.55214299
Element set:     399
Inclination:       99.0208 deg
RA of node:       152.6767 deg
Eccentricity:    0.0539642
Arg of perigee:   258.0573 deg
Mean anomaly:      95.9557 deg
Mean motion:   12.83316412 rev/day
Decay rate:       -2.6e-07 rev/day^2
Epoch rev:           57575
Checksum:              325

-------------------------------------------------------------------------------- 
         ■ ふじ2号/FO−20/JAS-1b ■      
            
          「ふじ2号」 現況                                                                                  
             
   JAS-1b(ふじ2号)のCWテレメトリ信号に,1997年10月12日12時(JST)の
 日本上空通過時,3桁の数字が繰り返されるはずが3個の長音の繰り返しとなっているという
 異常が発見されました。この不具合は次の通過時からは回復していましたが13日15時20分の
 通過時に再び観測されました。現在はA0の送信が続いています。衛星のアナログ系中継モード
 動作は異常が無く,正常時のテレメトリ内容からは衛星の動作に異常は認められません。従って,
 直ちに衛星のミッションに影響することは無いと予想されますので,当面はアナログ系中継
 モードを継続します。衛星は既に打ち上げてから7年8ヶ月を経ておりますので,今後は監視を
 強化する予定です。アマチュア各位のレポートをお待ちします。
 -------------------------------------------------------------------------------- 
  1997年10月14日 00時35分 確認のテレメトリ音 151 KB (A0) 
  1997年10月14日 11時10分 確認のテレメトリ音 216 KB (異常キーイング) 

  以上 JARLのホ−ムページの http://www.jarl.or.jp/Japanese/3_Fuji/new/fuji.htm

===================== FO-20 ふじ2号 のテレメトリ観測結果 ====================

  3月8日(金)18:18(JST)の観測結果ではテレメトリは、以前観測した単一周波数の
正弦波がドップラー効果で周波数がずれていくのみの状態でした。
                                         
   =============   JAS-2 (ふじ3号)と現在までの情報   ===========
  
  A.電話によるふじ3号の運用情報
      社団法人日本アマチュア連盟によるサービス
           TEL .   03− 3942 − 1000
  B.アマチュア無線FAXサービス
      JARLによるふじ3号の軌道情報(オービットカレンダー)
         FAX No.  03− 3233 −0055
  C.WWWブラウザで情報を簡単に見れる人のためにJAS−2
     ふじ3号の衛星としての運用されるまでの名前)の概要、打ち上げ
     までの状況、運用中における状況を説明したホームページを紹介し
     ておきます.

     社団法人日本アマチュア無線連盟(JARL)のホームページ

          http://www.jarl.or.jp/Japanese/3_Fuji/jasmenu.htm
 
     宇宙開発事業団(NASDA)ホームページ 
          http://www.nasda.go.jp/
         打上げ衛星 :地球観測プラットフォーム技術衛星(ADEOS) 
                       アマチュア衛星3号(JAS-2)
          http://spaceboy.nasda.go.jp/note/eisei/j/Eis15h_j.html#Eis15h_01_j
     http://spaceboy.nasda.go.jp/note/eisei/j/Eis15i_j.html        

  D.JAMSATによる軌道情報の活用
        JAMSATのホームページまたはjamsat−kepsの軌道要素より
      衛星の軌道情報を得る.
     JAMSATホームページ
               URL    http://www.jamsat.or.jp
       上記ホームページでは各地で行われるアマチュア通信衛星に関する
      ミューティングのお知らせや世界のアマチュア衛星に関する情報が
      満載されています.

 ========================================================================  
     JAMSATのメンバーのご協力によりJH6MME(高山 秀造)が
    執筆・編集を担当しております.ご指摘の意見、疑問やこのようにしたら
    というアイデアがありましたら小さなことでもかまいませんので気軽に下
    記アドレスまでご連絡ください.jamsat−newsからjas2
    infoへの転載をJH4PHW局坂井さんに担当して頂いております.  
                  E-mail : jh6mme@jamsat.or.jp : jh4phw@jamsat.or.jp
 ===============================   END  ===============================